Wind_Speed
2 4 6 6 7 5 4 4 4 6 4 2 4 6 3 3 4 6 7 6 7 8 8 8 7 8 8 8 9 9 10 10 10 10 11 11 13 13 14 13 14 15 15
8 6 6 6 5 5 5 3 2 3 0 2 4 5 4 2 1 2 5 5 5 6 7 8 6 6 7 7 7 7 7 8 9 10 11 10 11 11 11 12 13 15 15
10 7 5 6 5 5 6 2 2 1 1 3 4 5 2 1 1 1 1 3 2 3 5 7 9 10 8 8 7 7 7 8 10 14 11 8 10 9 10 12 13 13 14
8 6 6 3 3 4 6 6 2 2 3 5 6 6 4 3 1 1 1 3 1 1 1 4 6 5 6 6 5 5 6 8 10 12 10 3 5 7 8 10 10 12 13
7 6 5 1 2 1 2 0 2 2 4 6 8 9 7 5 3 4 5 1 3 3 3 1 3 4 3 2 0 2 5 7 10 9 2 2 1 4 6 8 8 9 8
6 5 2 2 2 3 2 1 2 2 2 4 6 7 7 6 6 5 5 6 7 4 4 4 2 3 1 2 1 2 4 6 9 3 6 6 4 3 5 5 5 7 9
6 4 3 3 2 2 0 2 3 2 3 3 4 5 5 5 4 5 6 6 6 5 5 4 6 5 5 3 3 3 4 4 4 2 3 3 8 3 3 5 5 6 6
6 6 2 4 2 2 2 3 3 4 5 5 5 5 5 5 4 4 5 5 5 5 4 6 9 8 8 7 5 4 5 2 4 2 1 2 7 6 4 5 5 4 3
5 5 4 2 7 5 5 5 4 4 6 7 7 7 6 6 6 5 5 5 5 4 4 5 9 10 10 10 11 9 7 5 4 3 1 3 7 3 2 3 2 2 3
3 3 1 1 1 5 5 6 7 8 5 4 6 8 9 9 8 8 8 6 5 5 4 5 8 10 11 11 13 14 12 10 4 6 3 11 9 4 3 1 2 4 4
1 1 2 4 5 8 7 8 15 8 9 7 5 4 8 6 9 10 10 10 9 9 7 7 8 9 11 13 15 16 16 9 10 6 6 15 11 7 8 8 6 5 4
3 4 5 7 7 8 8 8 9 7 9 9 7 9 8 6 9 11 14 12 12 12 11 10 9 9 10 10 12 14 16 11 14 13 10 17 15 11 10 11 11 11 10
7 8 9 9 9 10 12 15 13 13 10 10 9 9 8 8 8 10 9 14 13 12 12 13 12 11 9 11 12 11 10 11 10 12 14 19 16 14 12 12 12 12 14
11 12 13 13 10 7 7 12 18 17 17 15 14 11 10 10 9 10 10 10 11 11 11 11 12 13 14 14 12 11 11 11 11 12 13 18 17 15 14 13 13 14 15
12 13 15 15 14 13 9 9 12 16 15 18 19 16 16 16 14 13 12 12 12 12 12 12 14 13 15 14 14 13 13 13 13 13 14 20 19 16 16 14 13 14 15
12 13 14 16 15 14 14 13 12 10 11 14 17 19 19 20 21 22 20 15 14 14 14 14 14 14 14 14 15 16 16 14 15 15 15 18 17 17 17 16 15 15 15
11 12 14 15 15 15 13 13 12 12 11 10 11 12 14 19 23 25 27 29 24 18 16 17 17 16 17 16 17 16 17 17 17 17 18 18 18 16 18 17 16 16 16
8 10 12 13 14 14 14 13 12 12 11 11 10 11 12 14 13 15 20 26 31 32 30 29 22 20 20 18 18 18 18 19 19 18 18 20 19 17 17 18 18 17 17
7 8 10 11 13 13 13 12 12 12 12 13 13 13 14 15 15 15 14 13 20 24 26 28 23 25 22 21 20 20 20 21 21 20 20 23 23 20 20 18 17 18 18
5 7 9 11 13 14 12 13 13 13 14 14 14 14 16 16 17 17 16 15 15 15 22 20 27 29 23 25 22 22 22 24 25 24 23 22 26 24 22 22 20 19 19
3 5 8 11 13 15 15 16 16 17 16 17 16 16 18 17 17 18 18 17 16 16 16 17 20 22 31 23 25 26 28 24 26 27 28 26 25 28 26 25 25 22 21
4 6 8 11 13 14 14 15 16 18 20 21 21 20 20 19 20 19 19 19 18 19 18 17 18 20 22 29 24 24 26 27 30 29 28 27 27 27 29 27 27 25 23
7 9 10 11 12 15 15 17 19 21 23 23 22 24 24 22 23 22 22 21 21 21 21 19 19 19 23 23 30 22 14 16 19 28 31 31 26 27 30 27 28 27 26
11 11 11 12 14 16 18 21 23 25 27 25 28 28 27 26 25 24 24 24 25 24 23 22 20 21 21 23 21 29 37 27 7 17 15 23 27 26 28 29 28 28 27
10 10 11 13 15 19 22 23 26 27 29 32 31 30 31 30 29 29 27 27 27 26 26 25 24 23 24 24 24 22 25 35 40 33 20 20 26 29 28 27 26 27 27
7 9 11 14 17 22 24 25 27 30 30 32 32 33 34 33 31 31 29 30 30 30 28 27 27 26 25 26 26 24 24 23 28 34 42 33 26 18 24 26 26 26 27
Wind_Direction
133 168 163 163 146 160 115 107 62 58 82 59 38 42 54 54 56 50 50 47 44 42 37 36 69 57 69 69 79 86 89 95 94 84 74 71 68 64 60 59 50 47 48
153 161 157 161 164 145 128 112 114 110 333 357 349 10 69 78 38 34 53 36 59 45 38 28 41 77 89 83 85 91 92 93 86 74 63 45 60 56 56 52 44 42 40
133 158 153 158 168 161 141 170 261 244 293 331 7 14 32 24 46 314 327 36 22 34 36 43 55 49 63 76 76 85 94 90 82 67 47 43 7 44 47 43 38 41 39
128 138 158 136 150 169 149 201 259 352 12 355 10 15 2 336 327 180 213 198 354 284 33 56 93 95 72 66 66 78 87 89 83 70 59 5 339 27 46 42 34 42 38
121 138 202 92 71 107 105 3 347 10 3 353 5 5 2 359 354 286 313 292 217 244 242 67 128 120 117 109 17 80 104 87 77 55 100 308 65 24 45 41 31 41 41
118 139 163 137 83 85 63 22 340 326 330 339 349 355 357 359 352 332 332 327 328 319 242 229 228 179 161 223 255 190 136 92 85 68 18 9 359 1 14 42 27 17 28
112 124 89 103 114 116 335 301 297 286 302 312 327 339 347 353 353 343 332 325 325 304 289 281 239 234 219 235 257 209 174 114 82 7 39 32 285 312 29 14 7 359 5
111 108 71 61 64 63 9 334 307 289 286 296 303 314 322 328 330 323 322 322 320 310 302 267 241 239 242 246 248 239 219 205 81 281 323 292 289 278 293 319 325 323 336
109 107 85 27 11 18 19 24 4 316 289 292 292 293 298 305 307 301 306 308 317 314 294 264 246 241 248 250 259 256 251 234 142 235 230 281 293 295 250 308 330 291 275
99 107 104 314 270 322 314 345 349 337 339 331 297 293 298 298 297 291 286 280 293 297 288 268 250 246 248 254 263 258 255 251 262 238 250 254 267 236 233 300 263 272 257
94 300 288 288 280 292 309 285 314 315 329 331 338 354 310 299 295 304 295 299 295 289 287 278 266 255 248 256 273 265 255 247 225 257 242 257 262 253 241 250 264 272 257
4 340 328 300 256 259 269 246 276 274 297 307 330 299 328 292 269 263 282 290 288 285 281 276 272 271 252 249 293 284 257 249 240 215 233 255 258 255 249 249 253 250 252
25 22 3 346 319 298 270 259 255 261 256 265 256 275 275 276 280 292 292 298 290 285 285 283 276 264 256 236 236 252 255 243 256 258 238 246 253 253 250 248 252 250 244
39 34 26 20 8 350 315 280 271 277 268 264 265 260 254 272 283 286 281 276 275 269 277 259 264 270 270 265 255 259 249 251 245 246 263 266 259 253 253 248 251 249 244
47 40 36 34 33 28 13 332 274 273 281 273 266 267 269 269 264 262 273 278 276 274 268 263 265 257 265 261 256 246 241 244 243 242 245 259 260 252 253 249 246 248 248
48 45 41 40 38 36 36 31 22 357 315 294 283 280 281 275 272 273 267 258 273 277 272 268 262 263 254 255 252 249 242 239 237 236 234 258 261 252 251 250 245 243 246
52 47 42 39 34 32 30 28 24 15 11 9 0 345 301 281 274 271 272 278 266 253 256 263 263 258 256 253 252 250 254 243 238 237 240 241 262 255 251 252 248 244 240
56 42 37 36 29 26 23 17 11 5 3 355 351 344 337 330 317 305 290 276 273 274 267 252 248 256 257 253 255 255 244 249 240 238 237 246 244 255 253 251 251 247 242
47 38 30 22 18 13 11 8 1 353 352 345 339 332 327 324 318 314 308 298 301 288 272 266 262 254 252 254 257 249 245 244 241 235 235 243 246 245 249 255 248 247 245
40 22 15 9 6 359 359 351 348 341 338 332 328 324 325 321 315 311 304 305 302 297 299 281 259 254 252 255 251 253 251 243 241 237 234 235 248 244 243 244 250 246 245
356 360 359 353 353 350 345 342 340 335 329 321 318 319 317 316 314 311 305 302 299 295 292 290 285 269 251 246 260 248 248 244 243 243 239 231 234 248 244 241 246 249 247
302 318 334 335 337 338 331 326 324 322 315 312 309 306 306 309 309 308 301 296 294 293 291 287 286 283 275 252 252 257 259 254 243 235 242 234 231 236 246 244 243 244 242
287 291 303 312 320 324 326 321 317 311 310 306 304 298 298 297 299 298 296 292 289 288 285 284 283 279 282 277 245 242 249 245 249 237 236 236 231 227 239 242 240 239 239
275 277 292 300 310 317 315 312 309 308 306 303 300 298 293 291 292 290 287 284 284 286 284 282 280 278 276 273 275 252 240 244 297 254 224 233 231 233 229 236 238 238 236
277 270 284 298 305 309 309 308 307 303 300 299 298 296 293 287 284 284 283 280 278 278 281 280 277 273 270 271 267 266 263 255 254 250 277 246 226 232 231 230 234 231 233
279 284 293 300 304 308 309 307 304 301 301 299 297 295 293 291 288 283 280 277 277 274 274 278 279 272 268 266 263 266 259 255 262 254 250 235 257 232 247 233 229 231 229
Height
1532 1530 1531 1533 1534 1535 1535 1536 1536 1536 1536 1536 1536 1536 1535 1535 1534 1534 1534 1534 1534 1533 1533 1532 1532 1532 1531 1531 1530 1531 1531 1532 1533 1532 1532 1532 1532 1532 1531 1531 1530 1529 1529
1532 1531 1532 1534 1535 1536 1537 1537 1537 1537 1538 1537 1537 1537 1536 1536 1536 1535 1535 1535 1535 1534 1534 1534 1533 1533 1533 1532 1533 1532 1533 1534 1534 1535 1534 1534 1534 1534 1534 1533 1532 1531 1531
1535 1534 1533 1535 1536 1536 1538 1538 1538 1538 1538 1538 1538 1537 1537 1537 1537 1536 1536 1536 1535 1535 1535 1535 1535 1535 1534 1534 1534 1534 1534 1535 1536 1536 1536 1535 1536 1535 1535 1535 1534 1533 1533
1538 1537 1537 1536 1537 1537 1538 1538 1538 1538 1539 1538 1538 1538 1538 1537 1538 1537 1537 1536 1536 1536 1536 1535 1535 1535 1536 1536 1536 1536 1536 1536 1537 1538 1540 1538 1538 1537 1537 1536 1536 1535 1534
1540 1540 1537 1537 1538 1538 1538 1538 1539 1539 1539 1539 1539 1539 1538 1538 1538 1537 1537 1537 1537 1537 1537 1536 1536 1536 1536 1536 1536 1536 1537 1537 1538 1540 1539 1539 1538 1538 1538 1538 1537 1537 1537
1541 1541 1539 1538 1539 1539 1539 1539 1539 1539 1539 1539 1539 1539 1538 1538 1538 1538 1537 1537 1537 1537 1537 1537 1537 1536 1536 1536 1536 1536 1537 1538 1538 1541 1540 1539 1538 1539 1538 1538 1538 1538 1538
1543 1543 1540 1540 1539 1539 1539 1539 1539 1539 1539 1539 1539 1539 1538 1538 1537 1537 1537 1537 1537 1537 1537 1537 1537 1537 1536 1536 1536 1536 1537 1538 1539 1541 1541 1540 1538 1538 1538 1538 1539 1538 1538
1544 1544 1543 1541 1541 1540 1540 1539 1539 1539 1539 1539 1539 1538 1538 1537 1537 1537 1536 1536 1536 1535 1536 1536 1536 1536 1536 1536 1536 1536 1537 1538 1540 1541 1540 1539 1537 1537 1537 1537 1538 1538 1539
1545 1546 1546 1545 1543 1542 1541 1540 1540 1539 1538 1538 1538 1538 1537 1537 1536 1536 1536 1536 1535 1534 1534 1534 1534 1535 1535 1535 1535 1536 1536 1537 1538 1541 1540 1539 1536 1536 1536 1537 1537 1537 1538
1546 1547 1547 1547 1547 1545 1543 1541 1541 1540 1539 1538 1537 1537 1537 1537 1536 1536 1535 1535 1534 1534 1533 1532 1532 1533 1534 1534 1534 1534 1534 1535 1537 1537 1538 1535 1535 1535 1536 1536 1536 1537 1537
1546 1547 1547 1547 1547 1545 1544 1543 1541 1540 1539 1538 1537 1537 1536 1536 1537 1535 1534 1534 1534 1533 1533 1532 1531 1531 1532 1532 1533 1533 1533 1534 1535 1536 1537 1533 1533 1533 1534 1535 1535 1536 1537
1546 1545 1544 1543 1542 1543 1544 1543 1540 1541 1541 1539 1540 1540 1539 1540 1539 1536 1534 1533 1532 1532 1531 1531 1530 1530 1530 1531 1531 1531 1530 1533 1532 1532 1533 1530 1531 1531 1531 1532 1533 1534 1535
1545 1543 1542 1542 1542 1541 1542 1541 1540 1539 1540 1539 1538 1540 1540 1539 1537 1535 1533 1531 1530 1529 1529 1528 1528 1528 1528 1529 1531 1531 1530 1530 1531 1530 1530 1528 1528 1528 1528 1529 1530 1530 1531
1545 1543 1542 1541 1541 1541 1540 1537 1537 1536 1537 1537 1537 1536 1536 1536 1537 1536 1535 1534 1532 1530 1528 1528 1527 1526 1525 1526 1526 1528 1528 1529 1529 1530 1528 1525 1526 1525 1526 1526 1526 1527 1528
1545 1544 1542 1541 1540 1539 1538 1536 1534 1534 1534 1533 1533 1534 1533 1532 1532 1533 1533 1532 1531 1529 1528 1527 1526 1524 1523 1523 1523 1523 1524 1526 1526 1526 1526 1523 1522 1522 1523 1523 1524 1524 1525
1546 1544 1543 1541 1541 1540 1538 1536 1534 1533 1532 1531 1530 1530 1529 1529 1528 1528 1528 1527 1529 1528 1526 1525 1524 1523 1521 1521 1520 1519 1519 1520 1521 1521 1521 1518 1519 1519 1520 1520 1521 1521 1522
1547 1546 1544 1542 1542 1540 1538 1537 1535 1534 1533 1531 1530 1528 1526 1525 1524 1523 1523 1522 1522 1522 1522 1523 1521 1520 1519 1517 1517 1516 1515 1515 1515 1515 1515 1514 1513 1515 1516 1517 1517 1518 1519
1548 1547 1545 1544 1542 1541 1539 1538 1536 1534 1533 1531 1529 1527 1525 1523 1520 1519 1517 1516 1515 1515 1515 1515 1514 1515 1513 1513 1512 1511 1511 1511 1510 1511 1511 1509 1510 1510 1511 1512 1513 1514 1515
1548 1548 1547 1545 1543 1541 1540 1538 1536 1534 1532 1530 1528 1526 1523 1522 1519 1517 1515 1513 1510 1507 1507 1508 1508 1508 1509 1508 1507 1507 1506 1505 1505 1504 1505 1504 1504 1506 1507 1507 1509 1510 1511
1548 1548 1547 1545 1544 1542 1539 1537 1535 1533 1531 1529 1527 1524 1522 1519 1517 1514 1512 1510 1508 1506 1502 1501 1501 1502 1502 1501 1502 1502 1500 1499 1499 1498 1499 1499 1498 1499 1501 1502 1504 1504 1506
1548 1547 1546 1545 1543 1541 1538 1535 1533 1531 1530 1527 1525 1522 1519 1516 1514 1511 1509 1507 1505 1503 1501 1498 1496 1495 1495 1496 1496 1494 1493 1493 1493 1491 1491 1492 1493 1492 1494 1496 1497 1499 1500
1546 1546 1545 1544 1542 1541 1538 1535 1532 1530 1527 1524 1521 1519 1516 1513 1510 1508 1506 1503 1501 1499 1497 1495 1493 1490 1488 1490 1489 1490 1487 1487 1484 1485 1485 1485 1486 1488 1487 1489 1491 1493 1495
1544 1544 1543 1542 1540 1538 1536 1533 1530 1527 1523 1520 1517 1514 1511 1509 1506 1504 1502 1499 1497 1495 1492 1491 1489 1487 1484 1483 1485 1484 1483 1478 1479 1478 1478 1479 1481 1482 1482 1482 1484 1486 1488
1542 1541 1540 1539 1537 1535 1533 1529 1526 1522 1518 1515 1511 1508 1506 1504 1501 1499 1496 1494 1492 1489 1487 1485 1485 1483 1481 1479 1479 1477 1477 1476 1475 1473 1470 1476 1474 1478 1478 1476 1477 1480 1482
1538 1537 1536 1535 1533 1531 1528 1525 1521 1517 1513 1508 1505 1502 1499 1496 1494 1492 1490 1488 1486 1484 1482 1480 1478 1477 1476 1474 1473 1472 1471 1470 1471 1474 1471 1467 1468 1471 1472 1471 1471 1474 1476
1535 1534 1532 1530 1529 1526 1523 1520 1516 1511 1507 1502 1499 1495 1491 1489 1486 1484 1483 1481 1479 1477 1475 1474 1472 1470 1468 1467 1467 1466 1465 1464 1463 1464 1466 1462 1466 1463 1466 1465 1468 1468 1470